User: anonymous   Login
Location: Catstown
(52.4386°N, 7.2633°W)
Time: 11:35:29
(UTC+00:00)
Language:

Cosmos 1833 Rocket - Orbit

View from above orbital plane
View from above orbital plane
View from above satellite
View from above satellite

Ground track
Ground track

The orbit data is extracted from the following two-line orbital elements,

1 17590U 87027B   20337.79507888 -.00000217  00000-0 -84419-4 0  9995
2 17590  71.0035   6.8906 0005437 201.6809 158.4085 14.16791324743007
Epoch (UTC): 02 December 2020 19:04:54
Eccentricity: 0.0005437
inclination: 71.0035°
perigee height: 832 km
apogee height: 840 km
right ascension of ascending node: 6.8906°
argument of perigee: 201.6809°
revolutions per day: 14.16791324
mean anomaly at epoch: 158.4085°
orbit number at epoch: 74300

The dashed part of the orbit path shows where the satellite is in the earth's shadow,  

DLR